| time (UTC) | temp F | wind direction | speed MPH | gust MPH | rain 1hr in | rain 24hr in | rain mn in | humidity % | barometer mb |
| 20260509223018 | 62 | 233 | 10.0 | 20.0 | 0.00 | 0.14 | 0.02 | 81 | 1003.2 |
| 20260509221514 | 61 | 243 | 9.0 | 19.0 | 0.00 | 0.14 | 0.02 | 84 | 1003.0 |
| 20260509220014 | 60 | 200 | 7.0 | 17.0 | 0.00 | 0.14 | 0.02 | 85 | 1003.0 |
| 20260509214512 | 61 | 246 | 7.0 | 20.0 | 0.00 | 0.14 | 0.02 | 84 | 1003.0 |
| 20260509213010 | 60 | 261 | 8.0 | 13.0 | 0.00 | 0.14 | 0.02 | 86 | 1003.0 |
| 20260509211506 | 59 | 240 | 7.0 | 15.0 | 0.00 | 0.14 | 0.02 | 87 | 1002.9 |
| 20260509210004 | 59 | 261 | 4.0 | 12.0 | 0.00 | 0.14 | 0.02 | 88 | 1003.0 |
| 20260509204600 | 57 | 219 | 2.0 | 11.0 | 0.00 | 0.14 | 0.02 | 89 | 1002.9 |
| 20260509203100 | 56 | 211 | 4.0 | 10.0 | 0.00 | 0.14 | 0.02 | 90 | 1002.9 |
| 20260509201603 | 56 | 261 | 7.0 | 15.0 | 0.00 | 0.14 | 0.02 | 91 | 1002.7 |
| 20260509200055 | 55 | 246 | 0.0 | 0.0 | 0.00 | 0.14 | 0.02 | 91 | 1002.5 |
| 20260509194558 | 55 | 238 | 0.0 | 0.0 | 0.00 | 0.15 | 0.02 | 91 | 1002.5 |
| 20260509193051 | 54 | 237 | 0.0 | 0.0 | 0.00 | 0.15 | 0.02 | 91 | 1002.4 |
| 20260509191604 | 54 | 237 | 0.0 | 3.0 | 0.00 | 0.15 | 0.02 | 90 | 1002.4 |
| 20260509190049 | 54 | 240 | 1.0 | 5.0 | 0.00 | 0.15 | 0.02 | 90 | 1002.3 |
| 20260509184554 | 54 | 253 | 2.0 | 5.0 | 0.00 | 0.15 | 0.02 | 90 | 1002.2 |
| 20260509183053 | 53 | 217 | 3.0 | 8.0 | 0.00 | 0.15 | 0.02 | 89 | 1002.2 |
| 20260509181548 | 53 | 221 | 3.0 | 7.0 | 0.01 | 0.15 | 0.02 | 90 | 1002.1 |
| 20260509180053 | 52 | 257 | 0.0 | 0.0 | 0.01 | 0.15 | 0.02 | 90 | 1001.8 |
| 20260509174546 | 52 | 244 | 0.0 | 0.0 | 0.01 | 0.15 | 0.02 | 90 | 1001.7 |
| 20260509173054 | 52 | 240 | 0.0 | 1.0 | 0.01 | 0.15 | 0.02 | 91 | 1001.6 |
| 20260509171541 | 52 | 235 | 1.0 | 4.0 | 0.00 | 0.14 | 0.01 | 92 | 1001.5 |
| 20260509170039 | 52 | 247 | 0.0 | 0.0 | 0.00 | 0.14 | 0.01 | 92 | 1001.4 |
| 20260509164538 | 52 | 239 | 0.0 | 0.0 | 0.00 | 0.14 | 0.01 | 92 | 1001.3 |
| 20260509163037 | 52 | 240 | 0.0 | 0.0 | 0.00 | 0.14 | 0.01 | 92 | 1001.2 |
| 20260509161549 | 52 | 244 | 0.0 | 0.0 | 0.00 | 0.14 | 0.01 | 92 | 1001.3 |
| 20260509160038 | 52 | 244 | 0.0 | 0.0 | 0.00 | 0.14 | 0.01 | 92 | 1001.2 |
| 20260509154539 | 52 | 243 | 0.0 | 0.0 | 0.00 | 0.15 | 0.01 | 92 | 1001.3 |
| 20260509153049 | 52 | 244 | 0.0 | 0.0 | 0.00 | 0.15 | 0.01 | 92 | 1001.4 |
| 20260509151529 | 53 | 244 | 0.0 | 0.0 | 0.00 | 0.15 | 0.01 | 92 | 1001.4 |
| 20260509150027 | 53 | 244 | 0.0 | 0.0 | 0.00 | 0.15 | 0.01 | 92 | 1001.6 |
| 20260509144525 | 53 | 245 | 0.0 | 0.0 | 0.00 | 0.15 | 0.01 | 92 | 1001.6 |
| 20260509143024 | 54 | 245 | 0.0 | 0.0 | 0.00 | 0.15 | 0.01 | 93 | 1001.7 |
| 20260509141532 | 54 | 244 | 0.0 | 0.0 | 0.00 | 0.15 | 0.01 | 92 | 1001.7 |
| 20260509140020 | 54 | 242 | 0.0 | 0.0 | 0.00 | 0.15 | 0.01 | 92 | 1001.8 |
| 20260509134520 | 54 | 232 | 0.0 | 0.0 | 0.00 | 0.15 | 0.01 | 92 | 1001.7 |
| 20260509133021 | 55 | 232 | 0.0 | 2.0 | 0.00 | 0.15 | 0.01 | 92 | 1001.6 |
| 20260509131519 | 55 | 225 | 0.0 | 0.0 | 0.01 | 0.15 | 0.01 | 92 | 1001.6 |
| 20260509130015 | 55 | 220 | 0.0 | 3.0 | 0.01 | 0.15 | 0.01 | 92 | 1001.5 |
| 20260509124513 | 56 | 213 | 1.0 | 6.0 | 0.01 | 0.17 | 0.01 | 92 | 1001.5 |
| 20260509123010 | 56 | 238 | 1.0 | 4.0 | 0.02 | 0.17 | 0.01 | 92 | 1001.6 |
| 20260509121509 | 56 | 247 | 2.0 | 5.0 | 0.02 | 0.16 | 0.00 | 92 | 1001.9 |
| 20260509120008 | 56 | 246 | 0.0 | 4.0 | 0.02 | 0.16 | 0.00 | 92 | 1001.9 |
| 20260509114507 | 56 | 247 | 2.0 | 7.0 | 0.02 | 0.22 | 0.16 | 92 | 1002.1 |
| 20260509113007 | 56 | 246 | 3.0 | 8.0 | 0.00 | 0.20 | 0.14 | 92 | 1002.1 |
| 20260509111505 | 56 | 281 | 4.0 | 11.0 | 0.00 | 0.20 | 0.14 | 92 | 1002.2 |
| 20260509110005 | 55 | 296 | 3.0 | 5.0 | 0.00 | 0.20 | 0.14 | 92 | 1002.0 |
| 20260509104605 | 55 | 282 | 1.0 | 4.0 | 0.00 | 0.20 | 0.14 | 92 | 1002.0 |
| 20260509103108 | 55 | 292 | 1.0 | 4.0 | 0.00 | 0.20 | 0.14 | 91 | 1001.7 |
| 20260509101622 | 55 | 283 | 0.0 | 5.0 | 0.00 | 0.20 | 0.14 | 91 | 1001.4 |
| 20260509094602 | 55 | 304 | 0.0 | 0.0 | 0.00 | 0.20 | 0.14 | 91 | 1001.7 |
| 20260509093059 | 55 | 304 | 0.0 | 0.0 | 0.00 | 0.20 | 0.14 | 91 | 1001.6 |
| 20260509091556 | 56 | 290 | 0.0 | 3.0 | 0.00 | 0.20 | 0.14 | 91 | 1001.7 |
| 20260509090059 | 56 | 292 | 1.0 | 6.0 | 0.01 | 0.20 | 0.14 | 91 | 1002.0 |
| 20260509084600 | 56 | 342 | 0.0 | 4.0 | 0.02 | 0.20 | 0.14 | 91 | 1002.2 |
| 20260509083152 | 56 | 290 | 0.0 | 4.0 | 0.03 | 0.20 | 0.14 | 91 | 1002.3 |
| 20260509081551 | 57 | 311 | 3.0 | 7.0 | 0.05 | 0.20 | 0.14 | 91 | 1002.2 |
| 20260509080050 | 57 | 327 | 6.0 | 12.0 | 0.05 | 0.20 | 0.13 | 90 | 1002.4 |
| 20260509074606 | 57 | 292 | 3.0 | 9.0 | 0.05 | 0.19 | 0.12 | 90 | 1002.3 |
| 20260509073102 | 57 | 289 | 4.0 | 10.0 | 0.05 | 0.18 | 0.11 | 90 | 1002.2 |
| 20260509071548 | 58 | 260 | 5.0 | 11.0 | 0.04 | 0.17 | 0.09 | 90 | 1002.1 |
| 20260509070044 | 58 | 257 | 5.0 | 10.0 | 0.06 | 0.16 | 0.09 | 90 | 1001.7 |
| 20260509064540 | 59 | 277 | 0.0 | 3.0 | 0.04 | 0.14 | 0.07 | 89 | 1001.4 |
| 20260509063053 | 59 | 265 | 0.0 | 3.0 | 0.03 | 0.13 | 0.06 | 88 | 1001.5 |
| 20260509061539 | 59 | 288 | 2.0 | 6.0 | 0.02 | 0.13 | 0.06 | 87 | 1001.5 |
| 20260509060048 | 60 | 281 | 2.0 | 9.0 | 0.00 | 0.10 | 0.03 | 86 | 1001.4 |
| 20260509054537 | 61 | 289 | 4.0 | 10.0 | 0.00 | 0.11 | 0.03 | 86 | 1001.4 |
| 20260509053050 | 61 | 286 | 5.0 | 11.0 | 0.00 | 0.11 | 0.03 | 85 | 1001.4 |
| 20260509051535 | 62 | 275 | 5.0 | 9.0 | 0.00 | 0.11 | 0.03 | 85 | 1001.2 |
| 20260509050034 | 62 | 292 | 4.0 | 9.0 | 0.00 | 0.11 | 0.03 | 84 | 1001.3 |
| 20260509044534 | 62 | 259 | 5.0 | 11.0 | 0.00 | 0.11 | 0.03 | 84 | 1001.2 |
| 20260509043041 | 63 | 275 | 7.0 | 12.0 | 0.00 | 0.11 | 0.03 | 83 | 1001.2 |
| 20260509041534 | 63 | 299 | 3.0 | 11.0 | 0.00 | 0.11 | 0.03 | 83 | 1001.3 |
| 20260509040034 | 64 | 279 | 6.0 | 13.0 | 0.00 | 0.11 | 0.03 | 80 | 1001.3 |
| 20260509034528 | 64 | 280 | 6.0 | 12.0 | 0.00 | 0.11 | 0.03 | 80 | 1001.5 |
| 20260509033028 | 65 | 305 | 7.0 | 16.0 | 0.00 | 0.11 | 0.03 | 80 | 1001.7 |
| 20260509031527 | 65 | 281 | 7.0 | 15.0 | 0.00 | 0.11 | 0.03 | 79 | 1001.9 |
| 20260509030026 | 66 | 279 | 6.0 | 12.0 | 0.00 | 0.11 | 0.03 | 79 | 1002.0 |
| 20260509024526 | 66 | 290 | 5.0 | 16.0 | 0.00 | 0.11 | 0.03 | 78 | 1001.9 |
| 20260509023026 | 65 | 284 | 8.0 | 14.0 | 0.00 | 0.11 | 0.03 | 77 | 1001.9 |
| 20260509021525 | 68 | 279 | 8.0 | 15.0 | 0.00 | 0.11 | 0.03 | 72 | 1001.8 |
| 20260509020024 | 67 | 281 | 4.0 | 11.0 | 0.00 | 0.11 | 0.03 | 75 | 1001.7 |
| 20260509014527 | 68 | 288 | 7.0 | 15.0 | 0.00 | 0.11 | 0.03 | 72 | 1001.9 |
| 20260509013022 | 67 | 297 | 6.0 | 14.0 | 0.00 | 0.11 | 0.03 | 76 | 1002.0 |
| 20260509011519 | 66 | 254 | 6.0 | 11.0 | 0.00 | 0.11 | 0.03 | 75 | 1002.2 |
| 20260509010025 | 68 | 277 | 7.0 | 16.0 | 0.00 | 0.11 | 0.03 | 74 | 1002.3 |
| 20260509004521 | 67 | 273 | 9.0 | 14.0 | 0.00 | 0.11 | 0.03 | 74 | 1002.6 |
| 20260509003014 | 67 | 302 | 6.0 | 16.0 | 0.00 | 0.11 | 0.03 | 77 | 1002.8 |
| 20260509001509 | 66 | 271 | 4.0 | 16.0 | 0.00 | 0.11 | 0.03 | 78 | 1003.2 |
| 20260509000004 | 67 | 333 | 9.0 | 17.0 | 0.00 | 0.11 | 0.03 | 78 | 1003.4 |
| 20260508234501 | 66 | 253 | 10.0 | 16.0 | 0.00 | 0.11 | 0.03 | 80 | 1003.8 |
| 20260508233115 | 66 | 311 | 8.0 | 14.0 | 0.00 | 0.11 | 0.03 | 81 | 1004.1 |
| 20260508231600 | 67 | 297 | 4.0 | 12.0 | 0.00 | 0.11 | 0.03 | 82 | 1004.1 |
| 20260508230055 | 66 | 265 | 7.0 | 14.0 | 0.00 | 0.11 | 0.03 | 81 | 1004.3 |
| 20260508224556 | 65 | 284 | 6.0 | 14.0 | 0.00 | 0.11 | 0.03 | 82 | 1004.4 |